Simultaneous Nadir Overpasses (SNOs) Predictions

Prediction of SNOs between METOP-A and NOAA-19 Satellite Orbit:

Table of predicted SNOs for the next 14.0 days since TLE Epoch: 8/19/2016
Index Date (METOP-A) Time (METOP-A) Lat,Lon (METOP-A) SZA (METOP-A ) Date (NOAA-19) Time (NOAA-19) Lat,Lon (NOAA-19) SZA (NOAA-19 ) Distance(km) Time Diff (sec)
1 08/23/2016 10:52:09 -76.38,-161.93 114.91 08/23/2016 10:51:04 -76.39,-161.98 114.90 1.49 65
2 08/23/2016 11:42:49 76.37, 5.35 65.10 08/23/2016 11:42:01 76.37, 5.36 65.10 0.21 48
3 08/23/2016 12:33:31 -76.36, 172.65 114.90 08/23/2016 12:33:05 -76.35, 172.68 114.92 1.82 26
4 08/23/2016 13:24:11 76.35, -20.06 65.10 08/23/2016 13:24:02 76.33, -19.98 65.08 3.14 9
5 08/23/2016 14:14:53 -76.34, 147.24 114.90 08/23/2016 14:15:07 -76.35, 147.17 114.89 2.02 14
6
